SUPERBIRD 8

Last updated on Jan. 15, 2021, 6:31 a.m. UTC

1 43271U 18033A   21014.84193823 -.00000100  00000-0  00000-0 0  9990
2 43271   0.0131 103.7416 0000922 172.7939 303.0585  1.00270917 10201
UTC
Height (km)
Latitude
Longitude
Inclination
Orbital Period
UTC large
Height (km)
Speed (km/s)
/
Latitude / Longitude
Inclination (degrees)
Orbital Period (minutes)
Azimuth
Elevation
Range (km)
Doppler Factor
iOS Compass Heading
iOS Angle

Next 30 passes for location: Hong Kong

Rise time Rise Azimuth (degrees) Set time Set Azimuth (degrees) Duration Max altitude (degrees)

No matching passes for this satellites